This is the latest recevied weather packets stored in our database for station/object N5VIS. If no packets are shown the sender has not sent any weather packets the latest 10 day(s).
| Time | Temp. | Humidity | Pressure | Rain* | Wind** | Luminosity | Snow |
|---|---|---|---|---|---|---|---|
| 1777690357 | 13.89° C | 99% | 1014.4 hPa | 4.32 mm | - | - | - |
| 1777690055 | 13.89° C | 99% | 1013.9 hPa | 6.6 mm | - | - | - |
| 1777689752 | 13.89° C | 99% | 1013.2 hPa | 7.87 mm | - | - | - |
| 1777689450 | 13.89° C | 99% | 1013.5 hPa | 7.87 mm | - | - | - |
| 1777689148 | 13.89° C | 99% | 1013.7 hPa | 7.87 mm | - | - | - |
| 1777688845 | 13.89° C | 99% | 1013.7 hPa | 4.32 mm | - | - | - |
| 1777688541 | 13.89° C | 99% | 1013.5 hPa | 4.32 mm | - | - | - |
| 1777688239 | 13.89° C | 99% | 1012.6 hPa | 7.87 mm | - | - | - |
| 1777687936 | 13.89° C | 99% | 1012.2 hPa | 9.65 mm | - | - | - |
| 1777687633 | 13.89° C | 99% | 1012.8 hPa | 8.89 mm | - | - | - |
| 1777687330 | 13.89° C | 99% | 1012.6 hPa | 16.76 mm | - | - | - |
| 1777687028 | 13.89° C | 99% | 1012.3 hPa | 24.64 mm | - | - | - |
| 1777686724 | 13.89° C | 99% | 1012.4 hPa | 23.88 mm | - | - | - |
| 1777686422 | 13.89° C | 99% | 1012.6 hPa | 24.64 mm | - | - | - |
| 1777686119 | 14.44° C | 99% | 1012.2 hPa | 21.59 mm | - | - | - |
| 1777685814 | 14.44° C | 99% | 1011.9 hPa | 7.11 mm | - | - | - |
| 1777685510 | 14.44° C | 99% | 1011.6 hPa | 3.05 mm | - | - | - |
| 1777685207 | 14.44° C | 99% | 1011.5 hPa | 4.83 mm | - | - | - |
| 1777684905 | 14.44° C | 99% | 1011.6 hPa | 6.1 mm | - | - | - |
| 1777684602 | 14.44° C | 99% | 1011.6 hPa | 7.87 mm | - | - | - |
| 1777684297 | 14.44° C | 99% | 1011.7 hPa | 13.72 mm | - | - | - |
| 1777683996 | 15° C | 99% | 1012.2 hPa | 11.94 mm | - | - | - |
| 1777683692 | 15° C | 99% | 1012.3 hPa | 7.87 mm | - | - | - |
| 1777683389 | 15° C | 99% | 1012.3 hPa | 6.1 mm | - | - | - |
| 1777683087 | 15.56° C | 98% | 1012.4 hPa | 4.32 mm | - | - | - |
* Rain latest hour (hover to see other rain measurements)
** Current wind speed in m/s (hover to see current wind gust speed)